| time (UTC) | temp C | wind direction | speed KPH | gust KPH | rain 1hr cm | rain 24hr cm | rain mn cm | humidity % | barometer mb |
| 20260510225517 | 17 | 23 | 1.6 | 8.0 | 0.00 | 0.13 | 0.13 | 49 | 1016.9 |
| 20260510224526 | 17 | 49 | 1.6 | 6.4 | 0.00 | 0.13 | 0.13 | 50 | 1016.9 |
| 20260510223518 | 17 | 63 | 1.6 | 8.0 | 0.00 | 0.13 | 0.13 | 49 | 1017.0 |
| 20260510222546 | 17 | 354 | 1.6 | 4.8 | 0.00 | 0.13 | 0.13 | 48 | 1017.1 |
| 20260510221518 | 18 | 313 | 1.6 | 3.2 | 0.00 | 0.13 | 0.13 | 49 | 1017.0 |
| 20260510220518 | 18 | 352 | 1.6 | 4.8 | 0.00 | 0.13 | 0.13 | 47 | 1016.7 |
| 20260510215518 | 18 | 66 | 1.6 | 6.4 | 0.00 | 0.13 | 0.13 | 47 | 1016.5 |
| 20260510214518 | 18 | 355 | 1.6 | 4.8 | 0.00 | 0.13 | 0.13 | 48 | 1016.2 |
| 20260510213518 | 17 | 26 | 1.6 | 8.0 | 0.00 | 0.13 | 0.13 | 49 | 1016.1 |
| 20260510212538 | 17 | 96 | 1.6 | 4.8 | 0.00 | 0.13 | 0.13 | 48 | 1016.2 |
| 20260510211519 | 17 | 81 | 3.2 | 9.7 | 0.00 | 0.13 | 0.13 | 50 | 1016.0 |
| 20260510210519 | 17 | 79 | 3.2 | 8.0 | 0.00 | 0.13 | 0.13 | 49 | 1016.1 |
| 20260510205518 | 18 | 70 | 1.6 | 6.4 | 0.00 | 0.13 | 0.13 | 49 | 1016.0 |
| 20260510204519 | 17 | 81 | 3.2 | 9.7 | 0.00 | 0.13 | 0.13 | 49 | 1015.8 |
| 20260510203519 | 18 | 76 | 1.6 | 8.0 | 0.00 | 0.13 | 0.13 | 48 | 1016.1 |
| 20260510202539 | 18 | 15 | 1.6 | 4.8 | 0.00 | 0.13 | 0.13 | 49 | 1016.1 |
| 20260510201519 | 18 | 57 | 1.6 | 6.4 | 0.00 | 0.13 | 0.13 | 49 | 1016.2 |
| 20260510200519 | 20 | 53 | 1.6 | 3.2 | 0.00 | 0.13 | 0.13 | 46 | 1016.3 |
| 20260510195517 | 20 | 280 | 1.6 | 4.8 | 0.00 | 0.13 | 0.13 | 45 | 1016.1 |
| 20260510194520 | 19 | 66 | 1.6 | 6.4 | 0.00 | 0.13 | 0.13 | 47 | 1016.1 |
| 20260510193520 | 20 | 48 | 1.6 | 4.8 | 0.00 | 0.13 | 0.13 | 47 | 1016.1 |
| 20260510192517 | 19 | 340 | 1.6 | 4.8 | 0.00 | 0.13 | 0.13 | 45 | 1016.2 |
| 20260510191517 | 19 | 327 | 1.6 | 4.8 | 0.00 | 0.13 | 0.13 | 47 | 1016.3 |
| 20260510190517 | 19 | 23 | 1.6 | 6.4 | 0.00 | 0.13 | 0.13 | 46 | 1016.2 |
| 20260510185543 | 19 | 16 | 3.2 | 6.4 | 0.00 | 0.13 | 0.13 | 46 | 1016.0 |
| 20260510184517 | 19 | 315 | 1.6 | 6.4 | 0.00 | 0.13 | 0.13 | 48 | 1016.0 |
| 20260510183517 | 19 | 318 | 1.6 | 4.8 | 0.00 | 0.13 | 0.13 | 47 | 1016.1 |
| 20260510182538 | 20 | 50 | 1.6 | 6.4 | 0.00 | 0.13 | 0.13 | 48 | 1015.9 |
| 20260510181518 | 19 | 64 | 1.6 | 6.4 | 0.00 | 0.13 | 0.13 | 47 | 1015.9 |
| 20260510180518 | 19 | 47 | 1.6 | 6.4 | 0.00 | 0.13 | 0.13 | 49 | 1015.9 |
| 20260510175521 | 18 | 27 | 1.6 | 6.4 | 0.00 | 0.13 | 0.13 | 49 | 1015.9 |
| 20260510174538 | 18 | 40 | 3.2 | 9.7 | 0.00 | 0.13 | 0.13 | 48 | 1015.6 |
| 20260510173518 | 18 | 341 | 1.6 | 4.8 | 0.00 | 0.13 | 0.13 | 50 | 1015.5 |
| 20260510172519 | 18 | 12 | 1.6 | 6.4 | 0.00 | 0.13 | 0.13 | 48 | 1015.6 |
| 20260510171518 | 18 | 53 | 1.6 | 4.8 | 0.00 | 0.13 | 0.13 | 50 | 1015.6 |
| 20260510170518 | 17 | 48 | 3.2 | 9.7 | 0.00 | 0.13 | 0.13 | 49 | 1015.6 |
| 20260510165518 | 18 | 62 | 3.2 | 9.7 | 0.00 | 0.13 | 0.13 | 48 | 1015.7 |
| 20260510164539 | 18 | 56 | 1.6 | 6.4 | 0.00 | 0.13 | 0.13 | 47 | 1015.7 |
| 20260510163518 | 17 | 36 | 3.2 | 14.5 | 0.00 | 0.13 | 0.13 | 49 | 1015.8 |
| 20260510162519 | 17 | 92 | 3.2 | 9.7 | 0.00 | 0.13 | 0.13 | 48 | 1015.7 |
| 20260510161519 | 17 | 45 | 3.2 | 6.4 | 0.00 | 0.13 | 0.13 | 50 | 1015.7 |
| 20260510160539 | 17 | 83 | 4.8 | 12.9 | 0.00 | 0.13 | 0.13 | 46 | 1015.7 |
| 20260510155520 | 17 | 69 | 1.6 | 8.0 | 0.00 | 0.13 | 0.13 | 48 | 1015.6 |
| 20260510154516 | 17 | 73 | 3.2 | 8.0 | 0.00 | 0.13 | 0.13 | 49 | 1015.5 |
| 20260510153517 | 17 | 76 | 1.6 | 6.4 | 0.00 | 0.13 | 0.13 | 52 | 1015.6 |
| 20260510152520 | 17 | 17 | 1.6 | 8.0 | 0.00 | 0.13 | 0.13 | 53 | 1015.2 |
| 20260510151540 | 16 | 357 | 1.6 | 8.0 | 0.00 | 0.13 | 0.13 | 54 | 1015.0 |
| 20260510150519 | 16 | 57 | 1.6 | 4.8 | 0.00 | 0.13 | 0.13 | 55 | 1014.9 |
| 20260510145516 | 16 | 41 | 3.2 | 6.4 | 0.00 | 0.13 | 0.13 | 54 | 1014.7 |
| 20260510144517 | 16 | 341 | 1.6 | 6.4 | 0.00 | 0.13 | 0.13 | 55 | 1014.5 |
| 20260510143537 | 15 | 107 | 3.2 | 8.0 | 0.00 | 0.13 | 0.13 | 57 | 1014.3 |
| 20260510142520 | 15 | 99 | 1.6 | 4.8 | 0.00 | 0.13 | 0.13 | 56 | 1014.6 |
| 20260510141517 | 15 | 114 | 3.2 | 6.4 | 0.00 | 0.13 | 0.13 | 56 | 1014.4 |
| 20260510140517 | 14 | 81 | 1.6 | 8.0 | 0.00 | 0.13 | 0.13 | 56 | 1014.5 |
| 20260510135518 | 14 | 93 | 3.2 | 9.7 | 0.00 | 0.13 | 0.13 | 59 | 1014.4 |
| 20260510134518 | 13 | 101 | 3.2 | 6.4 | 0.00 | 0.13 | 0.13 | 57 | 1014.3 |
| 20260510133518 | 13 | 63 | 1.6 | 6.4 | 0.00 | 0.13 | 0.13 | 60 | 1014.4 |
| 20260510132540 | 13 | 221 | 1.6 | 1.6 | 0.00 | 0.13 | 0.13 | 64 | 1014.3 |
| 20260510131518 | 13 | 95 | 3.2 | 6.4 | 0.00 | 0.13 | 0.13 | 63 | 1014.0 |
| 20260510130518 | 13 | 72 | 1.6 | 4.8 | 0.00 | 0.13 | 0.13 | 66 | 1014.0 |
| 20260510125538 | 12 | 76 | 1.6 | 6.4 | 0.00 | 0.13 | 0.13 | 68 | 1014.0 |
| 20260510124518 | 12 | 21 | 1.6 | 3.2 | 0.00 | 0.13 | 0.13 | 70 | 1014.0 |
| 20260510123519 | 12 | 223 | 1.6 | 3.2 | 0.00 | 0.13 | 0.13 | 72 | 1013.7 |
| 20260510122519 | 12 | 242 | 0.0 | 3.2 | 0.00 | 0.13 | 0.13 | 72 | 1013.4 |
| 20260510121518 | 12 | 8 | 0.0 | 1.6 | 0.00 | 0.13 | 0.13 | 72 | 1013.3 |
| 20260510120519 | 12 | 56 | 0.0 | 4.8 | 0.00 | 0.18 | 0.13 | 71 | 1013.3 |
| 20260510115539 | 12 | 69 | 0.0 | 1.6 | 0.00 | 0.23 | 0.13 | 71 | 1013.2 |
| 20260510114519 | 12 | 64 | 1.6 | 3.2 | 0.00 | 0.23 | 0.13 | 72 | 1013.2 |
| 20260510113539 | 12 | 356 | 1.6 | 4.8 | 0.00 | 0.25 | 0.13 | 71 | 1013.0 |
| 20260510112519 | 12 | 104 | 1.6 | 4.8 | 0.00 | 0.25 | 0.13 | 73 | 1012.8 |
| 20260510111519 | 12 | 53 | 0.0 | 1.6 | 0.00 | 0.25 | 0.13 | 73 | 1012.8 |
| 20260510110519 | 12 | 108 | 1.6 | 3.2 | 0.00 | 0.25 | 0.13 | 72 | 1012.6 |
| 20260510105520 | 13 | 189 | 0.0 | 3.2 | 0.00 | 0.25 | 0.13 | 71 | 1012.2 |
| 20260510104517 | 13 | 9 | 1.6 | 3.2 | 0.00 | 0.25 | 0.13 | 71 | 1012.3 |
| 20260510103517 | 13 | 291 | 0.0 | 3.2 | 0.00 | 0.28 | 0.13 | 70 | 1012.1 |
| 20260510102519 | 13 | 93 | 1.6 | 3.2 | 0.00 | 0.28 | 0.13 | 69 | 1011.6 |
| 20260510101552 | 13 | 36 | 1.6 | 6.4 | 0.00 | 0.30 | 0.13 | 69 | 1011.7 |
| 20260510100517 | 13 | 359 | 1.6 | 4.8 | 0.00 | 0.33 | 0.13 | 71 | 1011.4 |
| 20260510095516 | 13 | 351 | 1.6 | 4.8 | 0.00 | 0.46 | 0.13 | 72 | 1011.2 |
| 20260510094517 | 13 | 298 | 1.6 | 3.2 | 0.00 | 0.56 | 0.13 | 73 | 1011.2 |
| 20260510093517 | 13 | 334 | 1.6 | 4.8 | 0.00 | 0.69 | 0.13 | 73 | 1011.1 |
| 20260510092540 | 13 | 13 | 1.6 | 3.2 | 0.00 | 0.76 | 0.13 | 73 | 1011.1 |
| 20260510091520 | 13 | 337 | 1.6 | 4.8 | 0.00 | 0.79 | 0.13 | 73 | 1010.7 |
| 20260510090518 | 14 | 48 | 1.6 | 3.2 | 0.00 | 0.86 | 0.13 | 73 | 1010.6 |
| 20260510085517 | 14 | 212 | 1.6 | 3.2 | 0.00 | 0.86 | 0.13 | 73 | 1010.3 |
| 20260510084518 | 14 | 71 | 1.6 | 4.8 | 0.00 | 0.86 | 0.13 | 73 | 1010.1 |
| 20260510083518 | 15 | 340 | 1.6 | 6.4 | 0.00 | 0.86 | 0.13 | 75 | 1009.8 |
| 20260510082538 | 15 | 337 | 1.6 | 8.0 | 0.00 | 0.86 | 0.13 | 77 | 1009.5 |
| 20260510081518 | 14 | 256 | 0.0 | 1.6 | 0.00 | 0.86 | 0.13 | 80 | 1009.5 |
| 20260510080518 | 14 | 270 | 1.6 | 3.2 | 0.00 | 0.89 | 0.13 | 81 | 1009.4 |
| 20260510075539 | 14 | 284 | 1.6 | 3.2 | 0.00 | 0.94 | 0.13 | 82 | 1009.1 |
| 20260510074521 | 14 | 243 | 1.6 | 3.2 | 0.00 | 1.02 | 0.13 | 81 | 1009.3 |
| 20260510073519 | 15 | 228 | 0.0 | 3.2 | 0.00 | 1.09 | 0.13 | 80 | 1009.4 |
| 20260510072518 | 15 | 282 | 1.6 | 3.2 | 0.00 | 1.17 | 0.13 | 78 | 1009.5 |
| 20260510071519 | 15 | 256 | 1.6 | 6.4 | 0.00 | 1.30 | 0.13 | 76 | 1009.5 |
| 20260510070519 | 15 | 253 | 3.2 | 8.0 | 0.00 | 1.40 | 0.13 | 75 | 1009.4 |
| 20260510065519 | 15 | 243 | 1.6 | 3.2 | 0.00 | 1.50 | 0.13 | 74 | 1009.2 |
| 20260510064520 | 16 | 237 | 1.6 | 6.4 | 0.03 | 1.55 | 0.13 | 73 | 1009.2 |
| 20260510063519 | 16 | 202 | 1.6 | 6.4 | 0.08 | 1.57 | 0.13 | 73 | 1009.4 |
| 20260510062519 | 16 | 181 | 1.6 | 3.2 | 0.13 | 1.68 | 0.13 | 72 | 1009.3 |
| 20260510061519 | 16 | 218 | 1.6 | 4.8 | 0.13 | 1.75 | 0.13 | 74 | 1009.3 |
| 20260510060520 | 16 | 237 | 1.6 | 4.8 | 0.13 | 1.80 | 0.13 | 74 | 1009.3 |
| 20260510055517 | 16 | 193 | 1.6 | 6.4 | 0.13 | 1.85 | 0.13 | 76 | 1009.4 |
| 20260510054520 | 17 | 242 | 3.2 | 11.3 | 0.10 | 1.85 | 0.10 | 77 | 1009.7 |
| 20260510053520 | 17 | 237 | 3.2 | 8.0 | 0.05 | 1.83 | 0.05 | 76 | 1009.8 |
| 20260510052520 | 17 | 233 | 3.2 | 11.3 | 0.00 | 1.78 | 0.00 | 71 | 1009.5 |
| 20260510051520 | 17 | 202 | 3.2 | 8.0 | 0.00 | 1.78 | 0.00 | 71 | 1009.3 |
| 20260510050517 | 17 | 196 | 1.6 | 4.8 | 0.00 | 1.78 | 0.00 | 71 | 1009.1 |
| 20260510045517 | 17 | 215 | 1.6 | 4.8 | 0.00 | 1.78 | 0.00 | 71 | 1008.9 |
| 20260510044520 | 17 | 194 | 1.6 | 8.0 | 0.00 | 1.78 | 0.00 | 71 | 1008.8 |
| 20260510043518 | 17 | 218 | 1.6 | 4.8 | 0.00 | 1.80 | 0.00 | 71 | 1008.7 |
| 20260510042518 | 17 | 188 | 1.6 | 6.4 | 0.00 | 1.88 | 0.00 | 71 | 1008.5 |
| 20260510041518 | 16 | 206 | 1.6 | 6.4 | 0.00 | 1.93 | 0.00 | 71 | 1008.4 |
| 20260510040518 | 16 | 186 | 1.6 | 6.4 | 0.00 | 1.93 | 0.00 | 73 | 1008.5 |
| 20260510035522 | 16 | 193 | 1.6 | 4.8 | 0.00 | 1.93 | 1.93 | 72 | 1008.4 |
| 20260510034518 | 17 | 220 | 1.6 | 4.8 | 0.00 | 1.93 | 1.93 | 72 | 1008.4 |
| 20260510033538 | 17 | 183 | 1.6 | 4.8 | 0.00 | 1.96 | 1.93 | 71 | 1008.4 |
| 20260510032518 | 17 | 189 | 1.6 | 4.8 | 0.00 | 1.96 | 1.93 | 71 | 1008.3 |
| 20260510031538 | 17 | 210 | 1.6 | 4.8 | 0.00 | 1.96 | 1.93 | 71 | 1008.2 |
| 20260510030539 | 17 | 204 | 1.6 | 4.8 | 0.00 | 1.96 | 1.93 | 71 | 1008.1 |
| 20260510025559 | 17 | 197 | 1.6 | 3.2 | 0.00 | 1.96 | 1.93 | 71 | 1008.2 |
| 20260510024519 | 17 | 205 | 1.6 | 4.8 | 0.00 | 1.96 | 1.93 | 70 | 1008.2 |
| 20260510023519 | 17 | 190 | 1.6 | 6.4 | 0.00 | 1.96 | 1.93 | 69 | 1008.2 |
| 20260510022519 | 17 | 204 | 1.6 | 4.8 | 0.00 | 1.96 | 1.93 | 69 | 1008.0 |
| 20260510021516 | 18 | 184 | 1.6 | 6.4 | 0.00 | 1.96 | 1.93 | 68 | 1007.9 |
| 20260510020540 | 18 | 196 | 1.6 | 6.4 | 0.00 | 1.96 | 1.93 | 68 | 1007.8 |
| 20260510015520 | 18 | 197 | 1.6 | 6.4 | 0.00 | 1.96 | 1.93 | 68 | 1007.6 |
| 20260510014519 | 18 | 189 | 1.6 | 3.2 | 0.00 | 1.96 | 1.93 | 68 | 1007.5 |
| 20260510013520 | 18 | 228 | 1.6 | 4.8 | 0.00 | 1.96 | 1.93 | 68 | 1007.3 |
| 20260510012517 | 18 | 198 | 1.6 | 4.8 | 0.00 | 1.96 | 1.93 | 67 | 1007.3 |
| 20260510011540 | 18 | 216 | 1.6 | 4.8 | 0.00 | 1.96 | 1.93 | 65 | 1007.2 |
| 20260510010520 | 19 | 174 | 1.6 | 3.2 | 0.00 | 1.96 | 1.93 | 64 | 1007.0 |
| 20260510005520 | 19 | 188 | 1.6 | 3.2 | 0.00 | 1.98 | 1.93 | 63 | 1007.0 |
| 20260510004520 | 20 | 180 | 1.6 | 3.2 | 0.00 | 2.01 | 1.93 | 62 | 1006.9 |
| 20260510003518 | 20 | 230 | 1.6 | 4.8 | 0.00 | 2.03 | 1.93 | 60 | 1006.8 |
| 20260510002518 | 20 | 187 | 1.6 | 6.4 | 0.00 | 2.06 | 1.93 | 59 | 1006.7 |
| 20260510001518 | 20 | 207 | 3.2 | 8.0 | 0.00 | 2.06 | 1.93 | 58 | 1006.5 |
| 20260510000521 | 21 | 195 | 1.6 | 6.4 | 0.00 | 2.06 | 1.93 | 58 | 1006.4 |
| 20260509235518 | 21 | 203 | 3.2 | 8.0 | 0.00 | 2.11 | 1.93 | 56 | 1006.2 |
| 20260509234558 | 21 | 198 | 3.2 | 9.7 | 0.00 | 2.13 | 1.93 | 55 | 1006.2 |
| 20260509233539 | 21 | 199 | 3.2 | 12.9 | 0.00 | 2.13 | 1.93 | 55 | 1006.1 |
| 20260509232518 | 21 | 218 | 1.6 | 9.7 | 0.00 | 2.13 | 1.93 | 54 | 1006.2 |
| 20260509231518 | 21 | 211 | 3.2 | 8.0 | 0.00 | 2.16 | 1.93 | 54 | 1006.1 |
| 20260509230518 | 21 | 200 | 3.2 | 11.3 | 0.00 | 2.16 | 1.93 | 53 | 1006.0 |